Weather History for OTBD - October, 2012

Change the Weather History Date:

Friday, October 19, 2012

  Actual Average Record
Temperature  
Mean Temperature 87 °F -  
Max Temperature 92 °F 89 °F - ()
Min Temperature 82 °F 70 °F - ()
Cooling Degree Days 22    
Growing Degree Days 37 (Base 50)    
Moisture  
Dew Point 72 °F    
Average Humidity 59    
Maximum Humidity 70    
Minimum Humidity 45    
Precipitation  
Precipitation 0.00 in 0.00 in - ()
Sea Level Pressure  
Sea Level Pressure 29.95 in    
Wind  
Wind Speed 6 mph ()    
Max Wind Speed 12 mph    
Max Gust Speed -    
Visibility 6.0 miles    
Events      
T = Trace of Precipitation, MM = Missing Value Source: Averaged Metar Reports

Daily Weather History Graph

Daily Weather History Graph

Search for Another Location

Airport or City:

Trip Planner

Search our weather history database for the weather conditions in past years. The results will help you decide how hot, cold, wet, or windy it might be!

Date:

Astronomy

Oct. 19, 2012 Rise Set
Actual Time 5:34 AM AST 5:02 PM AST
Civil Twilight 5:10 AM AST 5:25 PM AST
Nautical Twilight 4:44 AM AST 5:52 PM AST
Astronomical Twilight 4:17 AM AST 6:19 PM AST
Moon 9:33 AM AST (10/19) 8:35 PM AST (10/19)
Length of Visible Light 12h 14m
Length of Day
11h 28m
Waxing Crescent, 20% of the Moon is Illuminated
Oct 19
Waxing Crescent
Oct 22
First Quarter
Oct 29
Full
Nov 7
Last Quarter
Nov 14
New

Hourly Weather History & Observations

Time (AST) Temp. Heat Index Dew Point Humidity Pressure Visibility Wind Dir Wind Speed Gust Speed Precip Events Conditions
12:00 AM 86.0 °F 91.8 °F 71.6 °F 62% 29.92 in - ENE 4.6 mph - N/A   Clear
12:30 AM 84.2 °F 89.6 °F 71.6 °F 66% 29.92 in - ENE 3.5 mph - N/A   Clear
1:00 AM 84.2 °F 89.6 °F 71.6 °F 66% 29.92 in - Variable 2.3 mph - N/A   Clear
1:30 AM 84.2 °F 88.4 °F 69.8 °F 62% 29.92 in - East 4.6 mph - N/A   Clear
2:00 AM 84.2 °F 88.4 °F 69.8 °F 62% 29.92 in - East 4.6 mph - N/A   Clear
2:30 AM 84.2 °F 89.6 °F 71.6 °F 66% 29.92 in - East 3.5 mph - N/A   Clear
3:00 AM 84 °F - 70 °F 55% 29.93 in 7 mi East 4.6 mph - -  
3:00 AM 84.2 °F 88.4 °F 69.8 °F 62% 29.92 in - East 4.6 mph - N/A   Clear
3:30 AM 84.2 °F 89.6 °F 71.6 °F 66% 29.92 in - East 5.8 mph - N/A   Clear
4:00 AM 84.2 °F 89.6 °F 71.6 °F 66% 29.92 in - East 5.8 mph - N/A   Clear
4:30 AM 84.2 °F 89.6 °F 71.6 °F 66% 29.92 in - East 8.1 mph - N/A   Clear
5:00 AM 84.2 °F 89.6 °F 71.6 °F 66% 29.92 in - ESE 6.9 mph - N/A   Clear
5:30 AM 84.2 °F 89.6 °F 71.6 °F 66% 29.95 in - East 6.9 mph - N/A   Clear
6:00 AM 84.2 °F 89.6 °F 71.6 °F 66% 29.95 in - East 6.9 mph - N/A   Clear
6:30 AM 86.0 °F 91.8 °F 71.6 °F 62% 29.98 in - East 6.9 mph - N/A   Clear
7:00 AM 87.8 °F 93.8 °F 71.6 °F 58% 29.98 in - East 6.9 mph - N/A   Clear
7:30 AM 87.8 °F 93.8 °F 71.6 °F 58% 29.98 in - ESE 9.2 mph - N/A   Clear
8:00 AM 89.6 °F 96.2 °F 71.6 °F 55% 30.01 in - ESE 9.2 mph - N/A   Clear
8:30 AM 89.6 °F 96.2 °F 71.6 °F 55% 30.01 in 6.2 mi ESE 9.2 mph - N/A   Partly Cloudy
9:00 AM 90 °F - 71 °F 45% 30.01 in 6 mi ESE 10.4 mph - -   Scattered Clouds
9:00 AM 89.6 °F 96.2 °F 71.6 °F 55% 30.01 in 6.2 mi ESE 10.4 mph - N/A   Partly Cloudy
9:30 AM 89.6 °F 96.2 °F 71.6 °F 55% 30.01 in - ESE 10.4 mph - N/A   Clear
10:00 AM 91.4 °F 96.8 °F 69.8 °F 49% 30.01 in 6.2 mi ESE 10.4 mph - N/A   Partly Cloudy
10:30 AM 91.4 °F 98.4 °F 71.6 °F 52% 29.98 in - ESE 9.2 mph - N/A   Clear
11:00 AM 91.4 °F 98.4 °F 71.6 °F 52% 29.98 in - East 9.2 mph - N/A   Clear
11:30 AM 91.4 °F 96.8 °F 69.8 °F 49% 29.98 in - East 10.4 mph - N/A   Clear
12:00 PM 91.4 °F 96.8 °F 69.8 °F 49% 29.95 in - East 10.4 mph - N/A   Clear
12:30 PM 91.4 °F 96.8 °F 69.8 °F 49% 29.95 in - East 10.4 mph - N/A   Clear
1:00 PM 91.4 °F 96.8 °F 69.8 °F 49% 29.95 in - ESE 10.4 mph - N/A   Clear
1:30 PM 91.4 °F 96.8 °F 69.8 °F 49% 29.92 in - ESE 11.5 mph - N/A   Clear
2:00 PM 91.4 °F 96.8 °F 69.8 °F 49% 29.92 in 6.2 mi East 10.4 mph - N/A   Partly Cloudy
2:30 PM 89.6 °F 99.8 °F 75.2 °F 62% 29.92 in 6.2 mi ESE 10.4 mph - N/A   Partly Cloudy
3:00 PM 90 °F - 73 °F 48% 29.93 in 6 mi East 9.2 mph - -   Scattered Clouds
3:00 PM 89.6 °F 98.2 °F 73.4 °F 59% 29.92 in 6.2 mi East 9.2 mph - N/A   Partly Cloudy
3:30 PM 89.6 °F 98.2 °F 73.4 °F 59% 29.92 in 6.2 mi East 8.1 mph - N/A   Partly Cloudy
4:00 PM 87.8 °F 95.6 °F 73.4 °F 62% 29.92 in 5.6 mi East 6.9 mph - N/A   Partly Cloudy
4:30 PM 87.8 °F 97.6 °F 75.2 °F 66% 29.92 in - East 6.9 mph - N/A   Partly Cloudy
5:00 PM 87.8 °F 95.6 °F 73.4 °F 62% 29.92 in 5.0 mi ESE 6.9 mph - N/A   Unknown
5:30 PM 87.8 °F 95.6 °F 73.4 °F 62% 29.92 in 5.0 mi East 5.8 mph - N/A   Unknown
6:00 PM 87.8 °F 95.6 °F 73.4 °F 62% 29.95 in 5.6 mi ESE 5.8 mph - N/A   Unknown
6:30 PM 86.0 °F 91.8 °F 71.6 °F 62% 29.95 in - East 4.6 mph - N/A   Clear
7:00 PM 86.0 °F 91.8 °F 71.6 °F 62% 29.95 in - Variable 3.5 mph - N/A   Clear
7:30 PM 86.0 °F 91.8 °F 71.6 °F 62% 29.95 in - East 4.6 mph - N/A   Clear
8:00 PM 86.0 °F 91.8 °F 71.6 °F 62% 29.98 in - ENE 3.5 mph - N/A   Clear
8:30 PM 86.0 °F 90.4 °F 69.8 °F 58% 29.98 in - ENE 3.5 mph - N/A   Clear
9:00 PM 86 °F - 70 °F 50% 29.98 in 6 mi NE 3.5 mph - -  
9:00 PM 86.0 °F 90.4 °F 69.8 °F 58% 29.98 in - NE 3.5 mph - N/A   Clear
9:30 PM 86.0 °F 91.8 °F 71.6 °F 62% 29.98 in - ENE 4.6 mph - N/A   Clear
10:00 PM 86.0 °F 91.8 °F 71.6 °F 62% 29.98 in - ENE 4.6 mph - N/A   Clear
10:30 PM 86.0 °F 91.8 °F 71.6 °F 62% 29.95 in - ESE 3.5 mph - N/A   Clear
11:00 PM 84.2 °F 90.9 °F 73.4 °F 70% 29.95 in - ESE 3.5 mph - N/A   Clear
11:30 PM 84.2 °F 89.6 °F 71.6 °F 66% 29.95 in - ESE 3.5 mph - N/A   Clear